User: anonymous   Login
Location: Unspecified
(0.0000°N, 0.0000°E)
Time: 06:52:57
(UTC+00:00)
Language:

SICRAL 1 - Orbit

View from above orbital plane
View from above orbital plane
View from above satellite
View from above satellite

Ground track
Ground track

The orbit data is extracted from the following two-line orbital elements,

1 26694U 01005A   17051.67888695 0.00000000  00000-0  00000-0 0    07
2 26694   7.1447  51.4641 0006088 181.3001 178.7113  1.00270000    07
Epoch (UTC): 20 February 2017 16:17:35
Eccentricity: 0.0006088
inclination: 7.1447°
perigee height: 35761 km
apogee height: 35812 km
right ascension of ascending node: 51.4641°
argument of perigee: 181.3001°
revolutions per day: 1.00270000
mean anomaly at epoch: 178.7113°
orbit number at epoch: 0

The dashed part of the orbit path shows where the satellite is in the earth's shadow,  

DLR